Location: Unspecified
(0.0000°N, 0.0000°E)
Time: 05:07:37
(UTC+01:00)

Cosmos 1933 - Visible Passes

Search period start: 01 February 2015 00:00
Search period end: 11 February 2015 00:00
Orbit: 554 x 570 km, 82.5° (Epoch: 31 January)

Date Brightness Start Highest point End Pass type
(mag) Time Alt. Az. Time Alt. Az. Time Alt. Az.
01 Feb 6.1 06:12:27 10° SE 06:15:32 22° E 06:18:43 10° NE visible
01 Feb 7.3 19:51:28 10° W 19:51:49 10° W 19:51:49 10° W visible
02 Feb 5.6 06:11:32 10° SSE 06:14:59 28° E 06:18:28 10° NE visible
03 Feb 5.1 06:10:43 10° SSE 06:14:25 36° E 06:18:08 10° NNE visible
04 Feb 4.5 06:09:58 10° SSE 06:13:50 46° E 06:17:43 10° NNE visible
05 Feb 3.8 06:09:16 10° S 06:13:15 62° E 06:17:14 10° NNE visible
06 Feb 3.4 06:08:37 10° S 06:12:39 82° E 06:16:41 10° N visible
07 Feb 3.2 06:08:01 10° S 06:12:04 76° W 06:16:05 10° N visible
08 Feb 3.3 06:07:29 10° SSW 06:11:28 57° W 06:15:26 10° N visible
09 Feb 3.6 06:07:01 10° SSW 06:10:52 43° W 06:14:42 10° NNW visible
10 Feb 3.9 06:06:35 10° SSW 06:10:16 33° W 06:13:55 10° NNW visible
